Wind_Speed
11 9 8 10 11 11 11 10 11 11 11 10 11 12 12 13 13 13 13 12 12 11 11 11 10 10 8 7 7 8 8 9 10 10 11 11 11 11 11 11 11 11
13 11 11 11 11 11 10 10 10 11 11 11 12 14 14 14 14 14 14 14 13 12 12 12 12 12 10 10 10 9 10 11 12 12 12 12 13 13 14 14 14 14
16 14 13 11 10 10 9 9 10 11 11 11 12 14 15 14 14 13 13 13 12 12 12 12 12 12 11 11 11 11 11 12 13 13 13 13 14 15 15 15 15 15
17 16 14 11 9 9 10 9 9 10 11 11 10 11 12 13 13 12 11 11 11 11 11 11 12 12 12 11 11 11 12 13 14 14 14 15 16 16 17 16 16 15
19 18 15 11 10 9 8 9 7 7 10 10 8 8 9 11 11 11 10 10 10 9 10 11 12 12 13 13 12 12 13 14 14 14 14 15 16 16 17 16 16 16
21 21 18 13 12 12 9 8 7 7 9 10 8 7 7 8 9 9 9 9 9 9 9 10 12 13 14 13 13 13 13 13 13 13 13 13 13 14 14 14 13 13
24 24 22 17 14 15 12 10 9 9 9 10 9 7 6 7 8 8 9 9 9 9 9 10 10 12 13 13 12 13 13 13 13 12 10 10 10 10 10 10 9 9
23 24 22 18 15 16 17 14 12 12 11 10 9 8 8 7 7 8 9 10 10 9 9 9 10 11 13 12 11 12 12 12 12 10 8 8 9 8 7 8 8 7
20 21 20 17 15 17 19 18 17 15 12 11 10 9 9 8 7 8 9 10 11 11 10 10 10 11 12 12 12 11 10 11 11 9 7 7 7 6 6 6 6 6
15 17 18 16 14 17 19 18 19 17 13 12 12 10 9 9 8 9 10 10 11 11 11 11 11 11 12 12 12 12 10 10 10 9 8 6 5 5 5 4 4 5
12 14 17 15 12 15 19 18 20 20 15 13 13 12 11 10 9 10 10 11 11 11 11 11 11 11 11 10 10 10 10 9 8 8 7 6 5 5 5 5 4 4
12 13 15 14 11 12 17 19 22 24 20 15 14 14 14 13 12 11 11 12 12 11 11 12 11 11 11 10 9 8 7 7 7 7 6 5 4 4 5 5 5 5
12 13 13 13 12 12 14 17 20 23 24 21 17 15 15 16 15 15 14 14 13 12 12 13 13 14 14 12 10 8 7 7 8 7 6 5 6 6 6 6 7 8
11 13 13 13 14 15 14 15 17 20 23 25 23 19 17 16 17 18 18 17 17 16 15 16 16 16 17 15 13 12 11 10 10 9 7 7 7 8 8 8 9 10
9 12 13 14 16 17 16 16 17 17 19 22 24 22 19 16 16 18 20 20 21 21 20 18 17 17 18 18 16 14 13 13 11 11 10 9 8 8 9 10 10 11
8 10 12 14 16 18 18 18 18 17 17 18 20 22 22 19 17 18 19 20 22 23 24 23 22 21 21 22 21 18 16 12 9 8 8 8 8 9 9 10 10 10
6 8 10 12 14 16 17 18 18 19 19 20 21 23 25 24 21 20 20 22 22 21 21 23 24 26 26 26 26 22 17 13 11 10 8 6 7 9 9 9 9 9
4 5 7 9 11 12 14 16 18 20 21 23 25 26 26 25 24 22 22 23 21 18 18 19 21 25 28 29 29 28 25 23 22 19 15 11 10 10 11 11 11 11
3 4 6 7 9 10 11 12 13 16 18 21 24 26 27 26 25 23 23 23 22 21 21 21 21 23 26 29 29 29 28 26 23 19 16 14 12 12 13 13 13 13
1 3 5 7 8 10 10 10 12 13 15 16 18 21 23 25 25 25 25 25 25 25 23 22 23 23 23 24 23 23 23 21 18 15 14 12 12 12 11 11 10 10
4 3 4 5 8 10 10 11 12 12 13 14 14 16 18 20 21 24 25 25 24 24 21 21 23 23 20 19 20 21 20 16 14 13 12 11 11 10 9 9 8 8
7 6 5 5 6 9 10 11 11 12 13 14 14 15 15 16 18 19 20 21 21 22 21 21 22 21 20 22 24 23 19 15 14 13 12 12 11 10 9 9 7 6
7 7 8 7 7 8 10 12 11 13 14 14 15 16 16 17 18 18 18 19 19 21 22 21 22 22 23 24 24 24 21 17 16 14 13 13 12 10 9 7 5 4
8 7 8 9 8 9 10 12 12 14 16 16 17 18 17 18 20 21 21 21 21 24 24 22 22 23 25 25 24 24 22 19 16 14 14 14 11 9 8 5 4 4
10 10 10 10 10 10 11 12 12 14 17 19 20 20 19 19 21 23 24 25 25 26 25 23 23 25 24 25 26 25 22 19 15 14 14 13 10 8 6 4 4 3
15 14 14 13 12 12 12 11 12 13 15 18 21 22 22 21 21 23 25 26 28 28 27 26 27 27 26 27 27 25 22 18 15 14 13 11 9 6 5 4 3 3
Wind_Direction
210 205 182 168 155 138 130 129 132 134 131 132 133 131 134 134 133 131 129 128 129 131 135 140 146 149 152 149 133 127 136 142 142 138 137 141 142 144 144 144 145 144
207 205 195 179 158 143 135 132 135 137 136 138 142 140 138 136 134 133 129 126 125 126 129 132 136 140 139 139 138 138 143 147 147 143 141 141 140 140 140 141 141 139
209 203 197 184 162 147 140 135 134 136 136 139 145 145 141 140 138 135 132 130 128 127 128 129 131 133 134 135 137 140 144 146 146 143 141 141 140 139 138 137 137 134
215 207 200 186 167 153 138 131 131 130 126 125 140 147 145 143 141 138 137 133 132 131 130 132 133 134 135 134 134 139 143 144 142 141 141 142 142 140 138 136 134 130
220 214 205 189 186 182 150 132 142 141 123 116 126 142 147 146 142 141 142 138 137 136 134 135 134 134 133 130 131 137 139 139 139 139 141 143 142 140 138 137 135 131
227 221 212 207 216 217 185 151 169 173 144 137 141 139 146 150 145 143 144 143 144 142 141 140 135 132 129 126 128 131 130 131 132 131 133 137 138 138 137 134 132 129
229 223 218 223 234 225 199 173 182 187 165 158 156 146 145 149 149 150 148 148 148 146 147 145 139 134 129 124 126 127 128 129 127 123 124 128 131 134 137 136 133 130
225 223 223 234 242 225 207 198 200 195 181 171 161 153 152 150 155 162 159 159 159 155 155 150 146 143 137 132 132 130 130 130 127 126 128 131 129 128 132 136 137 138
225 227 230 238 239 222 212 215 214 203 189 181 170 162 164 164 169 173 171 173 172 169 166 161 157 155 149 145 143 140 136 135 132 134 135 131 127 130 138 140 135 135
221 229 231 232 229 217 214 218 212 202 194 188 182 178 178 181 187 188 187 188 185 183 178 171 168 166 162 159 156 152 150 147 143 142 143 142 145 155 164 163 150 147
206 218 221 223 225 216 214 212 204 202 204 196 190 193 192 191 197 202 202 201 197 195 189 182 179 175 171 170 169 164 160 158 155 152 152 156 169 179 186 193 190 186
204 211 215 221 227 217 214 215 211 212 214 207 200 203 203 202 206 210 213 211 206 203 198 192 188 184 180 178 174 170 170 171 169 166 165 171 184 200 212 221 226 224
213 215 216 221 225 223 222 225 227 225 223 221 218 216 213 212 213 216 220 220 214 207 202 200 198 196 194 191 181 175 179 187 188 185 189 202 212 223 232 237 243 243
219 222 221 220 223 228 232 236 238 236 232 230 229 229 228 225 222 224 226 229 228 221 215 216 213 206 202 200 196 193 192 195 201 206 217 232 239 244 247 248 252 251
224 226 224 225 229 234 242 248 247 242 238 235 232 232 234 230 228 232 232 231 232 231 229 228 225 218 213 209 204 200 200 203 209 218 228 239 247 256 261 261 262 260
230 228 225 230 235 238 244 252 253 248 242 237 232 231 232 231 232 237 239 236 236 237 236 235 233 232 229 224 217 206 197 200 215 224 228 237 244 254 267 269 268 268
232 232 229 233 237 240 243 245 246 245 243 242 240 236 234 235 236 238 243 243 241 240 239 239 240 239 236 234 232 226 215 220 244 250 245 253 257 261 270 274 270 265
238 241 240 241 241 243 244 240 238 238 240 244 245 245 244 244 245 246 245 241 237 236 239 244 245 243 241 239 242 246 244 244 251 253 251 255 263 267 269 268 267 262
242 247 250 251 248 245 243 242 239 238 238 239 242 247 249 248 248 246 240 236 239 243 247 250 249 246 245 243 244 247 243 238 238 240 242 248 257 266 265 259 259 261
300 257 253 254 254 252 248 246 243 239 238 236 236 241 245 246 247 245 242 242 243 245 247 249 250 250 248 244 236 227 221 221 225 231 237 248 255 257 256 250 248 250
352 316 271 259 259 261 260 254 246 239 237 235 233 236 239 241 242 242 244 243 239 240 240 242 250 249 237 221 204 197 205 216 220 224 232 239 241 237 232 230 229 229
339 325 310 292 271 265 264 263 256 247 240 233 231 234 235 233 230 231 235 234 232 235 234 234 244 238 214 200 195 198 211 217 209 211 219 220 220 219 217 217 217 218
329 322 314 304 291 279 271 269 265 255 246 236 233 236 235 231 228 226 230 231 230 233 233 233 237 226 206 200 204 208 211 205 195 199 207 208 209 209 208 210 211 219
305 306 303 296 292 288 281 277 270 257 250 245 240 240 241 240 238 235 236 235 229 229 233 236 235 225 212 205 208 211 205 194 187 192 199 203 204 202 204 213 224 233
284 285 283 280 277 277 277 276 271 261 254 250 246 246 248 249 249 245 242 240 234 231 236 237 227 220 214 208 207 206 198 186 180 187 195 199 199 202 211 221 231 248
275 274 273 270 268 265 263 265 268 267 261 255 250 249 249 249 251 250 246 242 236 234 236 232 220 215 212 205 199 196 192 184 178 181 188 190 193 203 219 226 236 259
Height
1540 1541 1541 1541 1542 1542 1541 1541 1542 1543 1544 1544 1544 1545 1545 1546 1546 1547 1547 1547 1548 1548 1549 1550 1550 1552 1553 1553 1554 1555 1556 1556 1557 1558 1558 1559 1559 1559 1560 1560 1560 1560
1539 1540 1541 1541 1542 1542 1541 1541 1541 1542 1543 1544 1544 1544 1545 1546 1547 1547 1548 1548 1549 1549 1550 1550 1551 1552 1553 1554 1555 1556 1556 1557 1558 1559 1559 1560 1560 1560 1560 1560 1561 1561
1539 1540 1540 1541 1541 1541 1541 1541 1541 1541 1542 1543 1544 1544 1545 1546 1547 1548 1549 1549 1550 1550 1551 1551 1552 1553 1554 1555 1556 1556 1557 1558 1558 1559 1560 1560 1560 1561 1561 1561 1562 1562
1538 1539 1540 1541 1541 1541 1541 1541 1540 1541 1542 1543 1544 1545 1546 1547 1547 1548 1549 1550 1550 1551 1551 1552 1553 1554 1555 1555 1556 1557 1558 1558 1559 1560 1560 1561 1561 1562 1562 1562 1563 1563
1537 1538 1539 1541 1541 1541 1541 1541 1540 1541 1542 1543 1545 1547 1547 1547 1548 1549 1550 1550 1551 1552 1552 1553 1554 1554 1555 1556 1557 1558 1558 1559 1560 1560 1561 1562 1562 1562 1563 1563 1564 1564
1535 1537 1538 1540 1540 1540 1541 1541 1541 1541 1542 1544 1546 1548 1548 1549 1549 1550 1551 1551 1552 1553 1554 1554 1555 1555 1556 1557 1558 1559 1559 1560 1561 1561 1562 1563 1563 1563 1564 1564 1565 1565
1533 1535 1537 1538 1539 1540 1541 1541 1542 1542 1543 1545 1547 1548 1549 1550 1550 1550 1551 1552 1553 1554 1555 1555 1556 1556 1557 1558 1559 1559 1560 1561 1562 1562 1563 1563 1564 1564 1565 1565 1566 1566
1532 1533 1536 1537 1538 1539 1540 1541 1542 1543 1544 1545 1546 1548 1549 1550 1551 1551 1552 1553 1554 1555 1556 1556 1557 1557 1557 1558 1559 1560 1560 1561 1562 1562 1563 1563 1564 1564 1565 1565 1566 1566
1531 1532 1535 1536 1537 1539 1540 1541 1542 1543 1544 1545 1546 1547 1548 1549 1550 1551 1552 1553 1554 1555 1556 1557 1557 1558 1558 1559 1560 1560 1561 1561 1562 1562 1563 1563 1564 1564 1565 1565 1566 1566
1530 1532 1534 1535 1537 1538 1539 1540 1541 1543 1544 1545 1546 1546 1547 1549 1550 1551 1552 1552 1553 1554 1555 1556 1557 1558 1558 1559 1559 1560 1561 1561 1562 1562 1563 1563 1564 1565 1565 1565 1565 1566
1530 1531 1533 1534 1536 1537 1538 1539 1540 1542 1543 1544 1545 1546 1547 1548 1549 1550 1551 1552 1553 1554 1555 1556 1556 1557 1558 1558 1559 1559 1560 1561 1561 1562 1562 1563 1563 1564 1565 1565 1565 1566
1529 1531 1532 1534 1535 1536 1537 1538 1539 1541 1542 1543 1544 1544 1545 1547 1548 1549 1550 1551 1552 1553 1554 1555 1556 1556 1557 1557 1558 1559 1559 1560 1560 1561 1561 1562 1563 1563 1564 1564 1564 1565
1529 1530 1531 1533 1534 1535 1536 1537 1538 1539 1540 1541 1542 1543 1544 1545 1546 1547 1549 1550 1551 1552 1553 1553 1554 1555 1555 1556 1557 1557 1558 1559 1559 1560 1560 1561 1562 1562 1563 1563 1563 1564
1528 1529 1530 1532 1533 1534 1535 1535 1536 1537 1539 1540 1541 1542 1543 1544 1545 1546 1547 1548 1549 1549 1550 1551 1552 1553 1554 1554 1555 1555 1556 1557 1557 1558 1559 1560 1560 1561 1561 1561 1561 1562
1527 1528 1529 1530 1531 1532 1533 1534 1535 1536 1537 1538 1539 1540 1541 1542 1543 1543 1544 1545 1546 1547 1548 1549 1550 1551 1552 1553 1553 1554 1554 1555 1556 1556 1557 1558 1558 1559 1559 1559 1559 1560
1527 1527 1528 1529 1529 1531 1532 1532 1533 1533 1534 1535 1536 1537 1538 1539 1540 1541 1541 1543 1543 1544 1546 1546 1547 1548 1549 1550 1551 1551 1552 1553 1554 1555 1555 1556 1556 1557 1558 1558 1558 1558
1526 1526 1527 1527 1528 1529 1529 1530 1531 1531 1532 1533 1534 1534 1535 1536 1537 1538 1539 1540 1540 1542 1543 1544 1545 1545 1546 1547 1548 1549 1551 1551 1552 1553 1554 1554 1555 1556 1556 1556 1556 1556
1525 1526 1526 1526 1527 1527 1527 1528 1528 1529 1529 1530 1530 1531 1531 1533 1534 1535 1536 1537 1537 1539 1540 1541 1542 1543 1543 1544 1545 1547 1549 1550 1551 1552 1553 1553 1554 1554 1554 1554 1554 1555
1524 1525 1525 1525 1525 1525 1525 1526 1526 1526 1527 1527 1527 1527 1528 1529 1531 1532 1533 1534 1534 1535 1536 1537 1538 1539 1540 1541 1542 1543 1545 1547 1548 1550 1551 1552 1552 1552 1552 1552 1552 1552
1523 1523 1524 1524 1524 1524 1524 1524 1524 1524 1524 1524 1524 1524 1524 1525 1527 1528 1529 1530 1530 1532 1532 1533 1533 1534 1536 1537 1538 1540 1542 1544 1546 1547 1548 1549 1549 1549 1550 1550 1550 1550
1521 1521 1522 1522 1522 1522 1522 1522 1522 1521 1521 1521 1522 1522 1521 1522 1523 1524 1524 1525 1527 1527 1528 1529 1529 1530 1532 1534 1535 1538 1540 1541 1543 1544 1545 1547 1547 1547 1548 1548 1549 1549
1520 1520 1520 1520 1520 1520 1520 1519 1519 1519 1519 1519 1520 1520 1520 1520 1520 1520 1520 1521 1523 1523 1524 1525 1526 1527 1529 1532 1533 1536 1538 1539 1541 1542 1543 1544 1545 1546 1546 1546 1547 1547
1519 1519 1518 1518 1518 1518 1518 1518 1518 1517 1517 1517 1518 1518 1518 1518 1517 1517 1518 1518 1519 1519 1520 1522 1524 1525 1528 1530 1532 1534 1536 1537 1539 1540 1541 1542 1543 1544 1544 1544 1545 1545
1518 1518 1517 1517 1516 1516 1516 1516 1516 1516 1516 1515 1515 1516 1516 1516 1516 1515 1516 1516 1516 1517 1518 1520 1523 1525 1528 1530 1532 1533 1534 1535 1537 1539 1539 1540 1541 1542 1542 1542 1543 1543
1516 1516 1516 1515 1515 1515 1514 1514 1514 1514 1514 1513 1513 1514 1514 1514 1514 1514 1514 1514 1515 1515 1517 1518 1520 1523 1527 1529 1530 1531 1532 1534 1536 1537 1537 1538 1539 1540 1540 1540 1541 1541
1515 1514 1514 1514 1513 1513 1513 1512 1512 1511 1511 1511 1511 1511 1512 1512 1511 1511 1511 1512 1513 1514 1515 1516 1517 1519 1523 1526 1529 1530 1531 1533 1535 1535 1536 1536 1537 1537 1538 1538 1539 1539